Starlink 11423

operational
NORAD ID: 61950 Int'l Des: 2024-209 Owner: SPXS Country: US Constellation: starlink
LEOCIRCULAR

About Starlink 11423

Description loading...

Live Position

Loading 3D Globe...

Upcoming Passes

Altitude History

Altitude vs Time

uPlot chart will show altitude changes over time

Two-Line Element Set

1 61950U 24209M 25349.93752474 .00203251 00000-0 16366-2 0 9999
2 61950 53.1582 64.1344 0001222 87.9160 272.1998 15.69785118 63566
Epoch: Dec 15, 2025 • Age: 18 hours

Current Status

Altitude 377.0 km
Velocity 7.68 km/s
Sub-Earth Point -50.83°S, 20.99°E
Launch Date Nov 14, 2024
Age 1 years
Type internet

Technical Details

Classification Payload
Mass 960.00 kg
Dry Mass 910.00 kg
Total Mass 960.00 kg
Length 0.30 m
Diameter 4.10 m
Span 29.00 m
Shape Box + pan
Manufacturer SPXS
Bus Type Starlink V2MD
Phase Status In Orbit
Owner/State SPXS/US

Large Constellations

Loading constellations...